Weather History for Douglas, WY

Change the Weather History Date:

Sunday, February 3, 2013

  Actual Average Record
Temperature  
Mean Temperature 30 °F 25 °F  
Max Temperature 52 °F 38 °F 57 °F (1963)
Min Temperature 8 °F 12 °F -4 °F (2011)
Degree Days  
Heating Degree Days 35 40  
Month to date heating degree days 105 120  
Since 1 July heating degree days 4031 4451  
Cooling Degree Days 0 0  
Month to date cooling degree days 0 0  
Year to date cooling degree days 0 0  
Moisture  
Dew Point 13 °F    
Average Humidity 55    
Maximum Humidity 88    
Minimum Humidity 21    
Precipitation  
Precipitation 0.00 in 0.01 in 0.08 in (1982)
Month to date precipitation T 0.04  
Year to date precipitation 0.06 0.42  
Sea Level Pressure  
Sea Level Pressure 30.11 in    
Wind  
Wind Speed 7 mph (NW)    
Max Wind Speed 30 mph    
Max Gust Speed 35 mph    
Visibility 10 miles    
Events      
T = Trace of Precipitation, MM = Missing Value Source: NWS Daily Summary

Daily Weather History Graph

Daily Weather History Graph

Search for Another Location

Airport:

Trip Planner

Search our weather history database for the weather conditions in past years. The results will help you decide how hot, cold, wet, or windy it might be!

Date:

Astronomy

Feb. 03, 2013 Rise Set
Actual Time 7:13 AM MST 5:17 PM MST
Civil Twilight 6:43 AM MST 5:47 PM MST
Nautical Twilight 6:10 AM MST 6:21 PM MST
Astronomical Twilight 5:36 AM MST 6:54 PM MST
Moon 12:44 AM MST (2/3) 10:55 AM MST (2/3)
Length of Visible Light 11h 03m
Length of Day
10h 04m
Waning Gibbous, 48% of the Moon is Illuminated
Feb 3
Waning Gibbous
Feb 10
New
Feb 17
First Quarter
Feb 25
Full
Mar 4
Last Quarter

Hourly Weather History & Observations

Time (MST) Temp. Windchill Dew Point Humidity Pressure Visibility Wind Dir Wind Speed Gust Speed Precip Events Conditions
12:53 AM 14.0 °F - 10.0 °F 84% 30.29 in 10.0 mi Calm Calm - N/A   Clear
1:53 AM 14.0 °F - 10.0 °F 84% 30.26 in 10.0 mi Calm Calm - N/A   Clear
2:53 AM 12.0 °F 5.9 °F 7.0 °F 80% 30.24 in 10.0 mi West 3.5 mph - N/A   Clear
3:53 AM 10.9 °F - 7.0 °F 84% 30.24 in 10.0 mi Calm Calm - N/A   Clear
4:53 AM 10.9 °F - 6.1 °F 81% 30.25 in 10.0 mi Calm Calm - N/A   Clear
5:53 AM 12.0 °F - 7.0 °F 80% 30.23 in 10.0 mi Calm Calm - N/A   Clear
6:53 AM 10.9 °F - 6.1 °F 81% 30.23 in 10.0 mi Calm Calm - N/A   Clear
7:53 AM 12.0 °F 5.9 °F 8.1 °F 84% 30.22 in 10.0 mi SSE 3.5 mph - N/A   Clear
8:53 AM 19.9 °F - 15.1 °F 81% 30.18 in 10.0 mi Calm Calm - N/A   Clear
9:53 AM 30.0 °F - 19.9 °F 66% 30.13 in 10.0 mi Calm Calm - N/A   Clear
10:53 AM 41.0 °F 38.0 °F 19.9 °F 43% 30.05 in 10.0 mi Variable 4.6 mph - N/A   Clear
11:53 AM 48.0 °F - 14.0 °F 26% 30.02 in 10.0 mi WNW 17.3 mph - N/A   Clear
12:53 PM 52.0 °F - 12.9 °F 21% 29.96 in 10.0 mi West 20.7 mph 29.9 mph N/A   Clear
1:53 PM 51.1 °F - 12.9 °F 22% 29.94 in 10.0 mi WNW 20.7 mph 26.5 mph N/A   Clear
2:53 PM 48.9 °F - 14.0 °F 25% 29.96 in 10.0 mi WNW 20.7 mph 34.5 mph N/A   Clear
3:53 PM 46.9 °F - 14.0 °F 27% 29.98 in 10.0 mi WNW 13.8 mph - N/A   Clear
4:53 PM 45.0 °F 39.7 °F 15.1 °F 30% 29.99 in 10.0 mi NW 10.4 mph - N/A   Clear
5:53 PM 35.1 °F 28.6 °F 14.0 °F 42% 30.04 in 10.0 mi North 8.1 mph - N/A   Clear
6:53 PM 30.0 °F 23.2 °F 14.0 °F 51% 30.08 in 10.0 mi North 6.9 mph - N/A   Clear
7:53 PM 30.9 °F 26.2 °F 16.0 °F 54% 30.09 in 10.0 mi NNW 4.6 mph - N/A   Clear
8:53 PM 28.0 °F 24.2 °F 16.0 °F 61% 30.08 in 10.0 mi WNW 3.5 mph - N/A   Clear
9:53 PM 24.1 °F 15.2 °F 14.0 °F 65% 30.07 in 10.0 mi North 8.1 mph - N/A   Clear
10:53 PM 24.1 °F 15.2 °F 15.1 °F 69% 30.02 in 10.0 mi North 8.1 mph - N/A   Clear
11:53 PM 25.0 °F 17.1 °F 15.1 °F 66% 30.00 in 10.0 mi NNW 6.9 mph - N/A   Clear